Weather observations for the past three days for
Morgantown Municipal-Hart Field
Imperial (Metric)
Date Time (edt) Wind (mph) Vis. (mi.) Weather Sky Cond. Temperature (ºF) Relative Humidity Wind Chill (°F) Heat Index (°F) Pressure Precipitation (in)
Air Dwpt 6 hour altimeter (in) sea level (mb) 1 hr 3 hr 6 hr
Max. Min.
22 20:53 S 3 10.00 Fair CLR 84 69.1 61% 88 29.96 1013.3
22 19:53 Calm 10.00 Fair CLR 90 66.9 93.9 89.1 47% 93 29.97 1013.5
22 18:53 Vrbl 6 10.00 Fair CLR 91 66 44% 94 29.97 1013.7
22 17:53 SW 9 10.00 A Few Clouds FEW050 91.9 66 43% 95 29.98 1013.9
22 16:53 Vrbl 5 10.00 A Few Clouds FEW055 93 66 41% 96 30 1014.6
22 15:53 W 7 10.00 Partly Cloudy SCT055 93.9 64.9 38% 96 30.02 1015.3
22 14:53 SW 9 10.00 Partly Cloudy SCT050 91.9 66 43% 95 30.04 1016.0
22 13:53 SW 7 10.00 Partly Cloudy SCT044 91 66.9 91 75 45% 94 30.07 1016.9
22 12:53 SW 9 10.00 Partly Cloudy SCT044 91 70 50% 97 30.09 1017.6
22 11:53 Vrbl 5 10.00 Fair CLR 88 70 55% 93 30.11 1018.3
22 10:53 SW 6 10.00 Fair CLR 86 70 59% 91 30.12 1018.5
22 09:53 S 6 10.00 Fair CLR 82.9 70 65% 87 30.14 1019.3
22 08:53 Vrbl 5 10.00 Fair CLR 79 68 69% 81 30.15 1019.7
22 07:53 Calm 10.00 Fair CLR 73.9 66.9 73.9 68 79% 30.15 1019.6
22 06:53 Calm 8.00 Fair CLR 71.1 66 84% 30.15 1019.6
22 05:53 Calm 9.00 Fair CLR 70 66 87% 30.15 1019.8
22 04:53 Calm 10.00 Fair CLR 71.1 66 84% 30.14 1019.4
22 03:53 Calm 10.00 Fair CLR 70 66.9 90% 30.14 1019.3
22 02:53 S 5 9.00 Fair CLR 70 66.9 90% 30.14 1019.4
22 01:53 S 3 9.00 Fair CLR 72 68 89.1 71.1 87% 30.15 1019.8
22 00:53 Calm 10.00 Fair CLR 73 68 84% 30.16 1020.2
21 23:53 NW 3 10.00 Fair CLR 73.9 68 82% 30.17 1020.3
21 22:53 Calm 10.00 Fair CLR 79 68 69% 81 30.17 1020.2
21 21:53 S 5 10.00 Fair CLR 77 68 74% 79 30.16 1020.2
21 20:53 Calm 10.00 Fair CLR 82.9 66.9 59% 86 30.16 1020.0
21 19:53 Calm 10.00 Fair CLR 89.1 64 93 88 43% 90 30.15 1019.8
21 18:53 Vrbl 5 10.00 Fair CLR 91 64.9 42% 93 30.15 1019.7
21 17:53 Vrbl 3 10.00 Fair CLR 91.9 64 40% 94 30.15 1019.8
21 16:53 W 3 10.00 Partly Cloudy SCT060 91.9 64 40% 94 30.17 1020.5
21 15:53 SW 3 10.00 Partly Cloudy SCT055 91 66.9 45% 94 30.19 1021.1
21 14:53 W 6 10.00 Mostly Cloudy BKN050 91.9 68 46% 96 30.21 1021.9
21 13:53 W 6 10.00 Partly Cloudy SCT047 90 70 90 75 52% 95 30.23 1022.5
21 12:53 SW 5 10.00 Partly Cloudy SCT044 88 66.9 50% 91 30.26 1023.4
21 11:53 S 6 10.00 Fair CLR 87.1 69.1 55% 91 30.26 1023.6
21 10:53 Calm 10.00 Fair CLR 84.9 69.1 59% 89 30.27 1023.9
21 09:53 Calm 10.00 Fair CLR 82.9 70 65% 87 30.29 1024.3
21 08:53 S 3 9.00 Fair CLR 78.1 70 76% 80 30.29 1024.3
21 07:53 Calm 8.00 Fair CLR 75 69.1 75 69.1 82% 75 30.29 1024.3
21 06:53 Calm 6.00 Fog/Mist CLR 72 68 87% 30.28 1024.0
21 05:53 SW 3 5.00 Fog/Mist CLR 71.1 68 90% 30.28 1024.0
21 04:53 Calm 7.00 Fair CLR 72 68 87% 30.27 1023.8
21 03:53 Calm 9.00 Overcast OVC065 73 69.1 87% 30.27 1023.8
21 02:53 Calm 6.00 Fog/Mist SCT050 71.1 69.1 94% 30.28 1024.0
21 01:53 Calm 8.00 Fair CLR 73 70 87.1 73 90% 30.28 1024.1
21 00:53 Calm 8.00 Fair CLR 73.9 70 88% 30.28 1024.2
20 23:53 Calm 9.00 Fair CLR 75 71.1 88% 75 30.29 1024.6
20 22:53 Calm 10.00 Fair CLR 78.1 71.1 79% 80 30.29 1024.6
20 21:53 Calm 10.00 Fair CLR 80.1 71.1 74% 84 30.28 1024.4
20 20:53 Calm 10.00 Fair CLR 82.9 69.1 63% 87 30.27 1023.8
20 19:53 W 5 10.00 Fair CLR 87.1 69.1 91 86 55% 91 30.27 1023.7
20 18:53 W 3 10.00 A Few Clouds FEW047 88 69.1 54% 92 30.27 1023.9
20 17:53 Vrbl 3 10.00 Mostly Cloudy SCT050 BKN065 90 68 48% 94 30.27 1023.9
20 16:53 Calm 10.00 A Few Clouds FEW050 88 66.9 50% 91 30.3 1024.6
20 15:53 Calm 10.00 Partly Cloudy SCT050 88 64.9 46% 90 30.31 1025.4
20 14:53 Vrbl 5 10.00 Partly Cloudy SCT050 89.1 66 47% 92 30.33 1025.9
20 13:53 SE 5 10.00 Partly Cloudy SCT045 87.1 66.9 88 73.9 51% 90 30.35 1026.4
20 12:53 S 6 10.00 Fair CLR 84.9 66 53% 87 30.36 1026.8
20 11:53 Vrbl 3 10.00 Partly Cloudy SCT034 82.9 66 57% 85 30.37 1027.3
20 10:53 S 5 10.00 A Few Clouds FEW037 80.1 66 62% 82 30.38 1027.5
20 09:53 Vrbl 5 10.00 A Few Clouds FEW036 78.1 66 67% 80 30.38 1027.4
20 08:53 SW 3 10.00 Partly Cloudy FEW035 SCT046 75 66 74% 76 30.37 1027.4
20 07:53 Calm 10.00 Fair CLR 73 66.9 75 69.1 81% 30.37 1027.2
20 06:53 Calm 10.00 Fair CLR 70 66.9 90% 30.36 1027.1
20 05:53 Calm 10.00 Fair CLR 71.1 66 84% 30.35 1026.6
20 04:53 SW 3 10.00 Fair CLR 71.1 66 84% 30.34 1026.3
20 03:53 S 3 10.00 Fair CLR 70 66 87% 30.33 1026.0
20 02:53 Calm 10.00 Fair CLR 73 66 79% 30.33 1025.8
20 01:53 Calm 10.00 Fair CLR 73 64.9 84.9 73 76% 30.33 1025.8
20 00:53 S 3 10.00 Fair CLR 75 64.9 71% 77 30.33 1025.8
19 23:53 SE 5 10.00 Fair CLR 75.9 64.9 69% 78 30.33 1025.8
19 22:53 SE 6 10.00 Fair CLR 78.1 66 67% 80 30.33 1025.9
19 21:53 Calm 10.00 Fair CLR 81 66 61% 83 30.32 1025.4
Date Time (edt) Wind (mph) Vis. (mi.) Weather Sky Cond. Air Dwpt Max. Min. Relative Humidity Wind Chill (°F) Heat Index (°F) altimeter (in) sea level (mb) 1 hr 3 hr 6 hr
6 hour
Temperature (ºF) Pressure Precipitation (in)